{"data":{"norad_id":64319,"intl_designator":"2025-124C","name":"STARLINK-11671 [DTC]","alt_names":[],"object_type":"PAYLOAD","status":"ACTIVE","operator":null,"country":"US","launch_date":"2025-06-10","launch_site_code":"AFETR","launch_vehicle":null,"mission":null,"orbit_class":"UNKNOWN","rcs_meters":null,"size_class":null,"mass_kg":null,"dimensions":null,"purposes":["comms"],"wikipedia_slug":null,"has_3d_model":false,"image_url":null,"decayed_at":null,"tle_current":{"epoch":"2026-09-19T19:02:32.529120Z","epoch_age_seconds":198721,"freshness":"STALE","line1":"1 64319U 25124C   26262.79343205  .00187056  00000+0  14234-2 0  9990","line2":"2 64319  42.9998 299.0649 0001191 304.3774  55.6981 15.70928565 73366","mean_motion":15.70928565,"eccentricity":0.0001191,"inclination_deg":42.9998,"raan_deg":299.0649,"arg_perigee_deg":304.3774,"mean_anomaly_deg":55.6981,"bstar":0.0014234,"rev_number":7336,"period_min":91.66553031646,"perigee_km":355.4398735845,"apogee_km":357.04400264756,"semimajor_km":6734.378938116,"source":"CELESTRAK","updated_at":"2026-09-21T09:00:35.310897Z"}}}